EZY532 EGAC-EGGP

Flight info

Callsign EZY532
Flight time 0h 32m
Altitude 19000
Route DUFFY L15 PEPOD Q38 SOSIM L28 PENIL
Aircraft A320/M-SDE3FGHIRWY/LB1

Departure

Time 2026-04-17 23:05
Airport George Best Belfast City Airport (EGAC)

Arrival

Time 2026-04-17 23:37
Airport Liverpool John Lennon Airport (EGGP)
Time Latitude Longitude Altitude Speed Heading
2026-04-17 22:42 54.61432 -5.87217 24 ft 0 kts 125°
2026-04-17 22:59 54.61433 -5.87218 23 ft 2 kts 125°
2026-04-17 22:59 54.61450 -5.87268 24 ft 4 kts 107°
2026-04-17 22:59 54.61452 -5.87309 23 ft 4 kts 64°
2026-04-17 23:00 54.61446 -5.87326 23 ft 0 kts 34°
2026-04-17 23:01 54.61457 -5.87312 25 ft 10 kts 34°
2026-04-17 23:02 54.61564 -5.87182 23 ft 21 kts 35°
2026-04-17 23:02 54.61641 -5.87091 23 ft 20 kts 34°
2026-04-17 23:02 54.61735 -5.86996 24 ft 13 kts
2026-04-17 23:02 54.61799 -5.87089 23 ft 13 kts 303°
2026-04-17 23:03 54.61864 -5.87173 24 ft 13 kts
2026-04-17 23:03 54.62000 -5.87021 23 ft 33 kts 35°
2026-04-17 23:03 54.62217 -5.86766 24 ft 39 kts 34°
2026-04-17 23:03 54.62376 -5.86578 25 ft 16 kts 34°
2026-04-17 23:04 54.62473 -5.86519 24 ft 14 kts 48°
2026-04-17 23:04 54.62435 -5.86486 25 ft 10 kts 233°
2026-04-17 23:04 54.62403 -5.86544 25 ft 0 kts 214°
2026-04-17 23:04 54.62383 -5.86568 26 ft 26 kts 214°
2026-04-17 23:05 54.61968 -5.87063 23 ft 115 kts 215°
2026-04-17 23:05 54.61171 -5.88020 432 ft 144 kts 216°
2026-04-17 23:05 54.60333 -5.89048 1309 ft 151 kts 218°
2026-04-17 23:05 54.59369 -5.90012 1776 ft 174 kts 199°
2026-04-17 23:06 54.58050 -5.89866 2098 ft 212 kts 167°
2026-04-17 23:06 54.56585 -5.88983 2614 ft 234 kts 168°
2026-04-17 23:06 54.54970 -5.88062 3212 ft 254 kts 168°
2026-04-17 23:06 54.53272 -5.87112 4134 ft 259 kts 168°
2026-04-17 23:07 54.51554 -5.86100 5122 ft 265 kts 161°
2026-04-17 23:07 54.49963 -5.84360 6036 ft 274 kts 150°
2026-04-17 23:07 54.48394 -5.82460 6957 ft 277 kts 150°
2026-04-17 23:07 54.46813 -5.80531 7893 ft 279 kts 150°
2026-04-17 23:08 54.45240 -5.78616 8787 ft 283 kts 150°
2026-04-17 23:08 54.43602 -5.76633 9712 ft 286 kts 150°
2026-04-17 23:08 54.41956 -5.74649 10381 ft 298 kts 150°
2026-04-17 23:08 54.40190 -5.72543 10648 ft 321 kts 150°
2026-04-17 23:09 54.38311 -5.70304 10918 ft 342 kts 150°
2026-04-17 23:09 54.36328 -5.67935 11516 ft 351 kts 150°
2026-04-17 23:09 54.34320 -5.65524 12291 ft 354 kts 150°
2026-04-17 23:09 54.32293 -5.63093 13057 ft 357 kts 150°
2026-04-17 23:10 54.30245 -5.60646 13821 ft 361 kts 150°
2026-04-17 23:10 54.28194 -5.58119 14477 ft 367 kts 146°
2026-04-17 23:10 54.26355 -5.55022 15143 ft 377 kts 135°
2026-04-17 23:10 54.24781 -5.51394 15796 ft 382 kts 131°
2026-04-17 23:11 54.23211 -5.47664 16444 ft 386 kts 131°
2026-04-17 23:11 54.21634 -5.43935 17097 ft 389 kts 132°
2026-04-17 23:11 54.20039 -5.40176 17735 ft 393 kts 132°
2026-04-17 23:11 54.18430 -5.36383 18368 ft 396 kts 132°
2026-04-17 23:12 54.16808 -5.32553 18849 ft 400 kts 132°
2026-04-17 23:12 54.15177 -5.28702 18969 ft 401 kts 133°
2026-04-17 23:12 54.13518 -5.24803 19030 ft 415 kts 133°
2026-04-17 23:12 54.11806 -5.20807 19030 ft 427 kts 133°
2026-04-17 23:13 54.10050 -5.16697 19033 ft 430 kts 132°
2026-04-17 23:13 54.08291 -5.12568 19032 ft 431 kts 132°
2026-04-17 23:13 54.06531 -5.08434 19032 ft 431 kts 132°
2026-04-17 23:13 54.04768 -5.04304 19035 ft 431 kts 133°
2026-04-17 23:14 54.02976 -5.00132 19043 ft 431 kts 133°
2026-04-17 23:14 54.01223 -4.96072 19043 ft 431 kts 133°
2026-04-17 23:14 53.99448 -4.91967 19043 ft 431 kts 133°
2026-04-17 23:14 53.97676 -4.87864 19043 ft 431 kts 133°
2026-04-17 23:15 53.95904 -4.83761 19046 ft 431 kts 133°
2026-04-17 23:15 53.94130 -4.79667 19049 ft 431 kts 133°
2026-04-17 23:15 53.92350 -4.75572 19049 ft 431 kts 133°
2026-04-17 23:15 53.90572 -4.71485 19020 ft 431 kts 133°
2026-04-17 23:16 53.88791 -4.67397 19014 ft 431 kts 133°
2026-04-17 23:16 53.87007 -4.63308 19024 ft 432 kts 133°
2026-04-17 23:16 53.85216 -4.59221 19049 ft 432 kts 133°
2026-04-17 23:16 53.83435 -4.55157 18912 ft 424 kts 133°
2026-04-17 23:17 53.81797 -4.51042 18671 ft 422 kts 126°
2026-04-17 23:17 53.79295 -4.41167 18131 ft 425 kts 117°
2026-04-17 23:17 53.78222 -4.36523 17855 ft 423 kts 117°
2026-04-17 23:18 53.77152 -4.31900 17589 ft 421 kts 117°
2026-04-17 23:18 53.76081 -4.27300 17321 ft 419 kts 117°
2026-04-17 23:18 53.75006 -4.22716 17051 ft 417 kts 117°
2026-04-17 23:18 53.74297 -4.19701 16882 ft 416 kts 117°
2026-04-17 23:19 53.72863 -4.13633 16503 ft 414 kts 117°
2026-04-17 23:19 53.71808 -4.09162 16069 ft 407 kts 117°
2026-04-17 23:19 53.70765 -4.04744 15527 ft 403 kts 117°
2026-04-17 23:19 53.69729 -4.00371 15008 ft 400 kts 117°
2026-04-17 23:20 53.69379 -3.98902 14814 ft 399 kts 117°
2026-04-17 23:21 53.61617 -3.67265 10842 ft 357 kts 127°
2026-04-17 23:22 53.60159 -3.64047 10716 ft 336 kts 139°
2026-04-17 23:22 53.58533 -3.61369 10580 ft 320 kts 142°
2026-04-17 23:22 53.56959 -3.58821 10456 ft 308 kts 142°
2026-04-17 23:22 53.55442 -3.56357 10271 ft 299 kts 142°
2026-04-17 23:23 53.53956 -3.53946 10038 ft 295 kts 142°
2026-04-17 23:23 53.52483 -3.51568 9899 ft 294 kts 142°
2026-04-17 23:23 53.51005 -3.49195 9658 ft 295 kts 142°
2026-04-17 23:23 53.49510 -3.46800 9181 ft 296 kts 142°
2026-04-17 23:24 53.48173 -3.44225 8788 ft 299 kts 128°
2026-04-17 23:24 53.47195 -3.41120 8361 ft 302 kts 120°
2026-04-17 23:24 53.46284 -3.37935 7725 ft 307 kts 120°
2026-04-17 23:24 53.45355 -3.34707 7354 ft 304 kts 120°
2026-04-17 23:25 53.44453 -3.31570 7210 ft 292 kts 120°
2026-04-17 23:25 53.43622 -3.28534 7090 ft 282 kts 112°
2026-04-17 23:25 53.43418 -3.25333 6967 ft 275 kts 85°
2026-04-17 23:25 53.43701 -3.22231 6840 ft 264 kts 81°
2026-04-17 23:26 53.44033 -3.19260 6703 ft 256 kts 80°
2026-04-17 23:26 53.44368 -3.16305 6570 ft 262 kts 80°
2026-04-17 23:26 53.44710 -3.13286 6426 ft 264 kts 80°
2026-04-17 23:26 53.45052 -3.10251 6266 ft 263 kts 80°
2026-04-17 23:27 53.45392 -3.07248 6095 ft 260 kts 80°
2026-04-17 23:27 53.45730 -3.04271 5938 ft 259 kts 80°
2026-04-17 23:27 53.46065 -3.01304 5782 ft 258 kts 80°
2026-04-17 23:27 53.46401 -2.98345 5626 ft 258 kts 80°
2026-04-17 23:28 53.46732 -2.95393 5469 ft 258 kts 80°
2026-04-17 23:28 53.47060 -2.92438 5314 ft 257 kts 80°
2026-04-17 23:28 53.47386 -2.89486 5164 ft 257 kts 80°
2026-04-17 23:28 53.47707 -2.86546 5017 ft 256 kts 80°
2026-04-17 23:29 53.48027 -2.83603 4866 ft 256 kts 80°
2026-04-17 23:29 53.48345 -2.80667 4710 ft 256 kts 80°
2026-04-17 23:29 53.48665 -2.77730 4549 ft 255 kts 80°
2026-04-17 23:29 53.48982 -2.74798 4389 ft 255 kts 80°
2026-04-17 23:30 53.49300 -2.71870 4233 ft 255 kts 80°
2026-04-17 23:30 53.49621 -2.68958 4078 ft 251 kts 80°
2026-04-17 23:30 53.49691 -2.66112 3915 ft 239 kts 106°
2026-04-17 23:30 53.48960 -2.63759 3753 ft 220 kts 140°
2026-04-17 23:31 53.47816 -2.62188 3611 ft 206 kts 155°
2026-04-17 23:31 53.46591 -2.61035 3457 ft 198 kts 159°
2026-04-17 23:31 53.45396 -2.60041 3320 ft 190 kts 169°
2026-04-17 23:31 53.44130 -2.59553 3248 ft 182 kts 179°
2026-04-17 23:32 53.42880 -2.59245 3113 ft 180 kts 180°
2026-04-17 23:32 53.41642 -2.58957 2978 ft 178 kts 181°
2026-04-17 23:32 53.40482 -2.59197 2851 ft 167 kts 205°
2026-04-17 23:32 53.39417 -2.59924 2791 ft 165 kts 210°
2026-04-17 23:33 53.38397 -2.60691 2732 ft 154 kts 210°
2026-04-17 23:33 53.37446 -2.61414 2677 ft 147 kts 210°
2026-04-17 23:33 53.36527 -2.62109 2618 ft 144 kts 210°
2026-04-17 23:33 53.35618 -2.62789 2572 ft 143 kts 210°
2026-04-17 23:34 53.34786 -2.63660 2452 ft 140 kts 229°
2026-04-17 23:34 53.34304 -2.65020 2289 ft 136 kts 252°
2026-04-17 23:34 53.34188 -2.66581 2127 ft 138 kts 262°
2026-04-17 23:34 53.34118 -2.68181 1938 ft 138 kts 262°
2026-04-17 23:35 53.34048 -2.69774 1746 ft 137 kts 261°
2026-04-17 23:35 53.33978 -2.71342 1554 ft 133 kts 261°
2026-04-17 23:35 53.33910 -2.72865 1362 ft 131 kts 261°
2026-04-17 23:35 53.33843 -2.74376 1179 ft 129 kts 261°
2026-04-17 23:36 53.33781 -2.75873 985 ft 130 kts 261°
2026-04-17 23:36 53.33715 -2.77379 808 ft 129 kts 262°
2026-04-17 23:36 53.33644 -2.78886 660 ft 129 kts 261°
2026-04-17 23:36 53.33573 -2.80388 479 ft 130 kts 261°
2026-04-17 23:37 53.33505 -2.81909 289 ft 132 kts 261°
2026-04-17 23:37 53.33436 -2.83430 109 ft 131 kts 262°
2026-04-17 23:37 53.33375 -2.84759 77 ft 82 kts 265°
2026-04-17 23:37 53.33368 -2.85278 85 ft 30 kts 285°
2026-04-17 23:38 53.33429 -2.85549 83 ft 12 kts 292°
2026-04-17 23:38 53.33469 -2.85652 86 ft 7 kts 342°
2026-04-17 23:38 53.33498 -2.85608 87 ft 9 kts 73°
2026-04-17 23:38 53.33507 -2.85453 88 ft 14 kts 85°
2026-04-17 23:39 53.33514 -2.85296 84 ft 13 kts 85°
2026-04-17 23:39 53.33519 -2.85198 86 ft 12 kts 86°
2026-04-17 23:39 53.33551 -2.85063 86 ft 8 kts 11°
2026-04-17 23:39 53.33606 -2.85067 87 ft 7 kts 355°
2026-04-17 23:40 53.33633 -2.85085 89 ft 5 kts 302°
2026-04-17 23:40 53.33634 -2.85143 87 ft 4 kts 265°
2026-04-17 23:40 53.33632 -2.85190 87 ft 0 kts 266°